Location: Glion
(46.4330°N, 6.9246°E)
Time: 05:21:06
(UTC+00:00)

Cosmos 1515 - Pass Details

Date: 03 March 2021
Orbit: 504 x 516 km, 82.5° (Epoch: 22 April)

Event Time Altitude Azimuth Distance (km) Brightness Sun altitude
Rises 17:54:26 0° 355° (N) 2,647 7.3 -6.5°
Reaches altitude 10° 17:56:38 10° 1° (N) 1,754 6.4 -6.9°
Maximum altitude 18:00:23 50° 77° (ENE) 660 3.8 -7.5°
Drops below altitude 10° 18:04:05 10° 155° (SSE) 1,733 6.1 -8.2°
Sets 18:06:15 0° 160° (SSE) 2,612 7.1 -8.5°
